Weather Roundup
Issued by NWS

Home | Current Version | Previous Version | Text Only | Print | Product List | Glossary On
Versions: 1 2 3 4 5 6 7 8 9 10 11 12 13 14 15 16 17 18 19 20 21 22 23 24 25 26 27 28 29 30 31 32 33 34 35 36 37 38 39 40 41 42 43 44 45 46 47 48 49 50
000
NZUS93 KARX 060610
HRRWXR

CURRENT HOURLY OBSERVATIONS ACROSS
MUCH OF THE UPPER MISSISSIPPI VALLEY
NATIONAL WEATHER SERVICE LA CROSSE WI
100 AM CDT WED MAY 06 2015


...SOUTHEAST MINNESOTA...


CITY           SKY/WX    TMP DP  RH WIND       PRES   REMARKS
ROCHESTER      FOG       53  52  96 SE17      30.14F VSB 1/4
ROCHESTER/MAYO CLOUDY    53  53 100 SE12      30.14F VSB 1
WINONA         CLOUDY    54  52  94 SE7       30.17S
AUSTIN         DRZL/FOG  54  52  94 SE10      30.12F VSB 1/4
ALBERT LEA     FOG       55  54  94 SE13      30.10F VSB 1/2
DODGE CENTER   FOG       54  54 100 SE15      30.12F VSB 1/4
PRESTON        FOG       52  52  98 SE6       30.16S VSB 1/2
OWATONNA       CLOUDY    54  52  94 SE14      30.11F FOG
FARIBAULT      CLOUDY    54  54 100 SE12      30.11F FOG
$$

...ELSEWHERE IN MINNESOTA...


CITY           SKY/WX    TMP DP  RH WIND       PRES   REMARKS
MINNEAPOLIS    CLOUDY    56  53  90 SE14      30.12F
INTNL FALLS    CLEAR     54  30  40 S8        30.10S
DULUTH         PTCLDY    49  27  42 E9        30.15F
RED WING       CLOUDY    55  54  94 SE10      30.13F
REDWOOD FALLS  CLOUDY    56  53  90 SE12      30.05F
MANKATO        CLOUDY    55  54  94 SE16      30.08F
WORTHINGTON    CLOUDY    57  54  88 SE14      30.04F VSB 1/2
FAIRMONT       CLOUDY    55  52  88 SE13      30.07S VSB 3/4
$$

...SOUTHWEST WISCONSIN...


CITY           SKY/WX    TMP DP  RH WIND       PRES   REMARKS
LA CROSSE      CLOUDY    56  52  86 SE6       30.17F
PRAIRIE DU CHI CLOUDY    55  52  89 E5        30.17S
BOSCOBEL       CLOUDY    56  52  86 NE3       30.19F FOG
LONE ROCK      CLOUDY    53  50  89 E9        30.20F
PLATTEVILLE    CLOUDY    52  51  95 E12       30.18S
FORT MC COY    CLOUDY    52  51  93 E3        30.20S
CAMP DOUGLAS   CLOUDY    52  52 100 SE8       30.20S
VIROQUA        CLOUDY    52  52 100 SE12      30.17F
WIS DELLS      NOT AVBL
$$

...ELSEWHERE IN WISCONSIN...


CITY           SKY/WX    TMP DP  RH WIND       PRES   REMARKS
MILWAUKEE      CLOUDY    46  35  65 VRB3      30.24F
MADISON        CLOUDY    52  49  89 MISG      30.21F
GREEN BAY      CLOUDY    53  34  48 CALM      30.25F
EAU CLAIRE     LGT RAIN  52  47  83 SE7       30.18S
BLACK RVR FLS  DRIZZLE   53  53  98 E3        30.19F
MEDFORD        CLOUDY    52  37  55 SE8G17    30.22S
WAUSAU         LGT RAIN  53  33  46 SE6       30.22S
WIS RAPIDS     LGT RAIN  51  47  86 SE5       30.23S
MARSHFIELD     CLOUDY    53  43  68 SE10      30.22S
RICE LAKE      LGT RAIN  55  45  68 SE10      30.19S
$$

...NORTHEAST IOWA...


CITY           SKY/WX    TMP DP  RH WIND       PRES   REMARKS
DECORAH        FOG       55  55 100 VRB6G12   30.15S VSB 1/4
MASON CITY     FOG       55  55 100 E13       30.11F VSB 1/4
CHARLES CITY   FOG       55  55 100 SE13      30.13F VSB 1/4
OELWEIN        FOG       55  55 100 E12G18    30.14S VSB 1/4
$$

...ELSEWHERE IN IOWA...


CITY           SKY/WX    TMP DP  RH WIND       PRES   REMARKS
DES MOINES     CLOUDY    67  63  87 E9        30.05F FOG
IOWA CITY      CLOUDY    61  60  97 E8        30.14  FOG
FORT DODGE     CLOUDY    63  59  88 SE13G18   30.06F
$$

...NORTHERN ILLINOIS...


CITY           SKY/WX    TMP DP  RH WIND       PRES   REMARKS
CHICAGO-OHARE  CLOUDY    47  46  97 NE7       30.21S FOG
CHICAGO-MIDWAY CLOUDY    52  49  89 NE6       30.20S FOG
MOLINE         CLOUDY    58  54  86 E12       30.15F FOG
ROCKFORD       CLOUDY    52  49  89 E6        30.22S FOG
PEORIA         PTCLDY    63  60  90 E8        30.15R FOG
$$

NOTE: "FAIR" INDICATES FEW OR NO CLOUDS BELOW 12,000 FEET WITH NO
SIGNIFICANT WEATHER AND/OR OBSTRUCTIONS TO VISIBILITY. WIND
SPEEDS ARE IN MILES-PER-HOUR.



USA.gov is the U.S. government's official web portal to all federal, state and local government web resources and services.